This is the latest recevied weather packets stored in our database for station/object K1NOT-WX. If no packets are shown the sender has not sent any weather packets the latest 10 day(s).
| Time | Temp. | Humidity | Pressure | Rain* | Wind** | Luminosity | Snow |
|---|---|---|---|---|---|---|---|
| 1777170433 | 15.56° C | 29% | 1000.3 hPa | 0 mm | - | - | - |
| 1777169533 | 16.11° C | 27% | 1000.7 hPa | 0 mm | - | - | - |
| 1777168633 | 16.67° C | 26% | 1000.7 hPa | 0 mm | - | - | - |
| 1777167733 | 16.67° C | 26% | 1000.7 hPa | 0 mm | - | - | - |
| 1777166833 | 16.67° C | 26% | 1000.7 hPa | 0 mm | - | - | - |
| 1777165933 | 16.67° C | 27% | 1001 hPa | 0 mm | - | - | - |
| 1777165033 | 16.67° C | 26% | 1001 hPa | 0 mm | - | - | - |
| 1777164133 | 16.67° C | 26% | 1001 hPa | 0 mm | - | - | - |
| 1777163233 | 16.67° C | 27% | 1001 hPa | 0 mm | - | - | - |
| 1777162333 | 16.67° C | 26% | 1001.4 hPa | 0 mm | - | - | - |
| 1777161433 | 16.67° C | 27% | 1001.4 hPa | 0 mm | - | - | - |
| 1777160533 | 16.67° C | 26% | 1001.4 hPa | 0 mm | - | - | - |
| 1777159839 | 16.67° C | 26% | 1001.7 hPa | 0 mm | - | - | - |
| 1777158733 | 16.67° C | 26% | 1001.7 hPa | 0 mm | - | - | - |
| 1777157833 | 16.67° C | 25% | 1001.4 hPa | 0 mm | - | - | - |
| 1777156933 | 16.67° C | 25% | 1001.7 hPa | 0 mm | - | - | - |
| 1777156033 | 16.11° C | 25% | 1002 hPa | 0 mm | - | - | - |
| 1777155133 | 16.67° C | 24% | 1002 hPa | 0 mm | - | - | - |
| 1777154233 | 16.67° C | 24% | 1002 hPa | 0 mm | - | - | - |
| 1777153333 | 16.11° C | 26% | 1002.4 hPa | 0 mm | - | - | - |
| 1777152432 | 16.11° C | 24% | 1002.4 hPa | 0 mm | - | - | - |
| 1777151533 | 17.22° C | 26% | 1002.7 hPa | 0 mm | - | - | - |
| 1777150632 | 16.11° C | 29% | 1002.7 hPa | 0 mm | - | - | - |
| 1777149732 | 16.11° C | 27% | 1002.7 hPa | 0 mm | - | - | - |
| 1777148833 | 15.56° C | 32% | 1002.7 hPa | 0 mm | - | - | - |
* Rain latest hour (hover to see other rain measurements)
** Current wind speed in m/s (hover to see current wind gust speed)